Location: Newark
(45.5167°N, 11.1667°E)
Time: 20:02:34
(UTC+00:00)

Explorer 7 - Pass Details

Date: 24 December 2019
Orbit: 485 x 679 km, 50.3° (Epoch: 21 January)

Event Time Altitude Azimuth Distance (km) Brightness Sun altitude
Rises 10:56:41 0° 249° (WSW) 2,828 10.7 20.9°
Reaches altitude 10° 10:58:55 10° 251° (WSW) 1,960 9.9 21.0°
Maximum altitude 11:03:26 76° 338° (NNW) 658 7.4 21.0°
Drops below altitude 10° 11:08:14 10° 64° (ENE) 2,073 9.6 21.0°
Sets 11:10:39 0° 66° (ENE) 3,007 10.4 21.1°
